Date String (YYYY-MM-DD hh:mm:ss) UTC,Instrument flags,Ambient pressure (hPa),Sample flow (lpm),Bypass flow (lpm),Sample temperature (°C),Ambient temperature (°C),ASC tube jacket temperature (°C),LED temperature (°C),Box temperature (°C),Sample RH (%),Span deviation,Mass concentration (μg/m³),Mass concentration (μg/m³),Mass concentration (μg/m³)
DateTimeUTC,F1_M11,P_M11,Q1_M11,Q2_M11,T1_M11,T2_M11,T3_M11,T4_M11,T5_M11,U1_M11,ZSPAN_M11,X2_M11,X0_M11,X1_M11
2022-05-21 02:00:00,,0825.9,5.00,0.00,22.3,21.3,00.0,31.3,24.1,20.7,0000.0,0001.71,0001.94,0001.65
2022-05-21 02:01:00,,0825.8,4.99,0.00,22.3,21.4,00.0,31.3,24.1,20.7,0000.0,0001.68,0001.89,0001.62
2022-05-21 02:02:00,,0826.1,5.01,0.00,22.3,21.3,00.0,31.3,24.1,20.7,0000.0,0001.65,0001.87,0001.59
2022-05-21 02:03:00,,0825.8,4.99,0.00,22.3,21.3,00.0,31.3,24.1,20.7,0000.0,0001.61,0001.81,0001.56
2022-05-21 02:04:00,,0825.7,5.01,0.00,22.3,21.3,00.0,31.3,24.1,20.8,0000.0,0001.59,0001.79,0001.54
2022-05-21 02:05:00,,0825.7,5.00,0.00,22.3,21.3,00.0,31.3,24.1,20.7,0000.0,0001.59,0001.80,0001.54
2022-05-21 02:06:00,,0825.7,5.00,0.00,22.3,21.3,00.0,31.3,24.1,20.7,0000.0,0001.60,0001.83,0001.54
2022-05-21 02:07:00,,0825.7,5.00,0.00,22.3,21.3,00.0,31.2,24.1,20.7,0000.0,0001.61,0001.84,0001.54
2022-05-21 02:08:00,,0825.7,5.01,0.00,22.3,21.3,00.0,31.2,24.1,20.7,0000.0,0001.59,0001.80,0001.54
2022-05-21 02:09:00,,0825.8,4.99,0.00,22.3,21.3,00.0,31.2,24.1,20.8,0000.0,0001.61,0001.81,0001.56
2022-05-21 02:10:00,,0825.9,5.01,0.00,22.3,21.3,00.0,31.2,24.1,20.8,0000.0,0001.64,0001.85,0001.59
2022-05-21 02:11:00,,0825.9,5.01,0.00,22.2,21.3,00.0,31.2,24.1,20.8,0000.0,0001.66,0001.87,0001.61
2022-05-21 02:12:00,,0826.0,5.00,0.00,22.2,21.3,00.0,31.2,24.1,20.8,0000.0,0001.69,0001.89,0001.64
2022-05-21 02:13:00,,0826.0,4.99,0.00,22.2,21.3,00.0,31.2,24.1,20.8,0000.0,0001.71,0001.90,0001.67
2022-05-21 02:14:00,,0826.0,4.99,0.00,22.2,21.3,00.0,31.2,24.1,20.8,0000.0,0001.76,0001.94,0001.72
2022-05-21 02:15:00,,0825.9,5.00,0.00,22.2,21.3,00.0,31.2,24.1,20.8,0000.0,0001.80,0001.98,0001.75
2022-05-21 02:16:00,,0825.9,5.00,0.00,22.2,21.3,00.0,31.2,24.1,20.8,0000.0,0001.84,0002.01,0001.80
2022-05-21 02:17:00,,0826.0,5.00,0.00,22.2,21.3,00.0,31.2,24.1,20.8,0000.0,0001.88,0002.02,0001.85
2022-05-21 02:18:00,,0826.0,5.00,0.00,22.2,21.3,00.0,31.2,24.1,20.8,0000.0,0001.94,0002.10,0001.90
2022-05-21 02:19:00,,0826.0,5.00,0.00,22.2,21.3,00.0,31.2,24.1,20.8,0000.0,0002.00,0002.14,0001.96
2022-05-21 02:20:00,,0826.2,5.00,0.00,22.2,21.3,00.0,31.2,24.1,20.8,0000.0,0002.06,0002.23,0002.01
2022-05-21 02:21:00,,0826.2,5.01,0.00,22.2,21.3,00.0,31.2,24.1,20.8,0000.0,0002.12,0002.26,0002.07
2022-05-21 02:22:00,,0826.2,5.00,0.00,22.2,21.3,00.0,31.2,24.1,20.8,0000.0,0002.20,0002.33,0002.15
2022-05-21 02:23:00,,0826.2,5.01,0.00,22.2,21.3,00.0,31.2,24.1,20.7,0000.0,0002.27,0002.39,0002.22
2022-05-21 02:24:00,,0826.1,4.99,0.00,22.2,21.3,00.0,31.2,24.1,20.7,0000.0,0002.34,0002.45,0002.30
2022-05-21 02:25:00,,0826.2,5.01,0.00,22.2,21.3,00.0,31.2,24.1,20.7,0000.0,0002.42,0002.52,0002.37
2022-05-21 02:26:00,,0826.2,5.00,0.00,22.2,21.2,00.0,31.2,24.1,20.7,0000.0,0002.47,0002.57,0002.43
2022-05-21 02:27:00,,0826.2,5.00,0.00,22.2,21.2,00.0,31.2,24.1,20.7,0000.0,0002.51,0002.59,0002.47
2022-05-21 02:28:00,,0826.3,5.00,0.00,22.2,21.2,00.0,31.2,24.1,20.7,0000.0,0002.55,0002.62,0002.51
2022-05-21 02:29:00,,0826.4,5.00,0.00,22.2,21.2,00.0,31.2,24.0,20.7,0000.0,0002.58,0002.63,0002.54
2022-05-21 02:30:00,,0826.5,5.00,0.00,22.2,21.2,00.0,31.2,24.0,20.8,0000.0,0002.59,0002.62,0002.56
2022-05-21 02:31:00,,0826.5,5.00,0.00,22.2,21.2,00.0,31.2,24.0,20.8,0000.0,0002.60,0002.60,0002.59
2022-05-21 02:32:00,,0826.5,5.01,0.00,22.2,21.2,00.0,31.2,24.1,20.8,0000.0,0002.62,0002.61,0002.61
2022-05-21 02:33:00,,0826.5,5.00,0.00,22.2,21.2,00.0,31.2,24.1,20.8,0000.0,0002.64,0002.66,0002.62
2022-05-21 02:34:00,,0826.5,5.00,0.00,22.2,21.2,00.0,31.2,24.0,20.8,0000.0,0002.67,0002.68,0002.65
2022-05-21 02:35:00,,0826.5,4.99,0.00,22.2,21.2,00.0,31.2,24.0,20.8,0000.0,0002.70,0002.70,0002.68
2022-05-21 02:36:00,,0826.5,5.00,0.00,22.2,21.2,00.0,31.2,24.1,20.8,0000.0,0002.73,0002.72,0002.71
2022-05-21 02:37:00,,0826.5,5.00,0.00,22.2,21.2,00.0,31.2,24.1,20.7,0000.0,0002.76,0002.74,0002.74
2022-05-21 02:38:00,,0826.5,5.00,0.00,22.2,21.3,00.0,31.2,24.1,20.7,0000.0,0002.79,0002.77,0002.76
2022-05-21 02:39:00,,0826.5,4.99,0.00,22.2,21.2,00.0,31.2,24.1,20.7,0000.0,0002.79,0002.76,0002.75
2022-05-21 02:40:00,,0826.5,5.01,0.00,22.2,21.2,00.0,31.2,24.1,20.7,0000.0,0002.77,0002.75,0002.73
2022-05-21 02:41:00,,0826.5,4.99,0.00,22.2,21.2,00.0,31.2,24.0,20.8,0000.0,0002.78,0002.77,0002.73
2022-05-21 02:42:00,,0826.5,5.00,0.00,22.2,21.2,00.0,31.2,24.0,20.8,0000.0,0002.78,0002.80,0002.72
2022-05-21 02:43:00,,0826.5,5.01,0.00,22.2,21.2,00.0,31.2,24.0,22.3,0000.0,0002.78,0002.83,0002.71
2022-05-21 02:44:00,,0826.5,4.99,0.00,22.2,21.2,00.0,31.2,24.1,23.6,0000.0,0002.78,0002.82,0002.70
2022-05-21 02:45:00,,0826.5,5.01,0.00,22.2,21.2,00.0,31.2,24.1,22.0,0000.0,0002.79,0002.84,0002.70
2022-05-21 02:46:00,,0826.3,5.01,0.00,22.2,21.3,00.0,31.2,24.1,21.3,0000.0,0002.78,0002.83,0002.69
2022-05-21 02:47:00,,0826.4,5.00,0.00,22.3,21.4,00.0,31.1,24.2,21.1,0000.0,0002.77,0002.82,0002.68
2022-05-21 02:48:00,,0826.3,5.00,0.00,22.3,21.8,00.0,31.1,24.4,20.9,0000.0,0002.78,0002.82,0002.70
2022-05-21 02:49:00,,0826.4,4.99,0.00,22.5,22.1,00.0,31.2,24.6,20.8,0000.0,0002.81,0002.85,0002.74
2022-05-21 02:50:00,,0826.5,5.00,0.00,22.5,22.2,00.0,31.3,24.7,20.6,0000.0,0002.88,0002.90,0002.81
2022-05-21 02:51:00,,0826.5,5.00,0.00,22.6,22.2,00.0,31.3,24.7,20.5,0000.0,0002.97,0002.97,0002.90
2022-05-21 02:52:00,,0826.5,5.01,0.00,22.6,22.2,00.0,31.3,24.6,20.5,0000.0,0003.04,0003.02,0002.98
2022-05-21 02:53:00,,0826.5,5.01,0.00,22.6,22.1,00.0,31.4,24.6,20.4,0000.0,0003.09,0003.02,0003.04
2022-05-21 02:54:00,,0826.5,4.99,0.00,22.6,22.1,00.0,31.4,24.6,20.4,0000.0,0003.13,0003.04,0003.10
2022-05-21 02:55:00,,0826.5,5.00,0.00,22.6,22.1,00.0,31.4,24.6,20.4,0000.0,0003.16,0003.06,0003.14
2022-05-21 02:56:00,,0826.5,4.99,0.00,22.6,22.0,00.0,31.4,24.6,20.4,0000.0,0003.17,0003.08,0003.15
2022-05-21 02:57:00,,0826.5,5.01,0.00,22.7,22.0,00.0,31.4,24.6,20.3,0000.0,0003.18,0003.13,0003.16
2022-05-21 02:58:00,,0826.5,5.00,0.00,22.6,21.9,00.0,31.5,24.6,20.3,0000.0,0003.19,0003.18,0003.16
2022-05-21 02:59:00,,0826.5,4.99,0.00,22.6,21.9,00.0,31.5,24.6,20.3,0000.0,0003.18,0003.17,0003.15
